Weather History for Paducah, KY

Change the Weather History Date:

Thursday, January 13, 2011

  Actual Average Record
Temperature  
Mean Temperature 24 °F 34 °F  
Max Temperature 32 °F 43 °F 68 °F (1995)
Min Temperature 16 °F 26 °F 0 °F (1977)
Degree Days  
Heating Degree Days 41 31  
Month to date heating degree days 461 400  
Since 1 July heating degree days 2170 2031  
Cooling Degree Days 0 0  
Month to date cooling degree days 0 0  
Year to date cooling degree days 0 0  
Moisture  
Dew Point 13 °F    
Average Humidity 64    
Maximum Humidity 80    
Minimum Humidity 47    
Precipitation  
Precipitation 0.00 in 0.12 in 2.25 in (1971)
Month to date precipitation 0.42 1.55  
Year to date precipitation 0.42 1.55  
Snow  
Snow 0.00 in 0.00 in 2.10 in (1968)
Month to date snowfall 0.9 1.1  
Since 1 July snowfall 6.5 3.4  
Snow Depth 0.00 in    
Sea Level Pressure  
Sea Level Pressure 30.58 in    
Wind  
Wind Speed 4 mph (West)    
Max Wind Speed 15 mph    
Max Gust Speed 20 mph    
Visibility 9 miles    
Events      
T = Trace of Precipitation, MM = Missing Value Source: NWS Daily Summary

Daily Weather History Graph

Daily Weather History Graph

Search for Another Location

Airport:

Trip Planner

Search our weather history database for the weather conditions in past years. The results will help you decide how hot, cold, wet, or windy it might be!

Date:

Astronomy

Jan. 13, 2011 Rise Set
Actual Time 7:08 AM CST 4:59 PM CST
Civil Twilight 6:39 AM CST 5:28 PM CST
Nautical Twilight 6:07 AM CST 6:00 PM CST
Astronomical Twilight 5:36 AM CST 6:31 PM CST
Moon 11:40 AM CST (1/13) 1:08 AM CST (1/13)
Length of Visible Light 10h 48m
Length of Day
9h 51m
Waxing Gibbous, 62% of the Moon is Illuminated
Jan 13
Waxing Gibbous
Jan 19
Full
Jan 26
Last Quarter
Feb 2
New
Feb 11
First Quarter

Hourly Weather History & Observations

Time (CST) Temp. Windchill Dew Point Humidity Pressure Visibility Wind Dir Wind Speed Gust Speed Precip Events Conditions
12:53 AM 17.1 °F 7.6 °F 10.0 °F 74% 30.63 in 10.0 mi NNW 6.9 mph - N/A   Mostly Cloudy
1:53 AM 17.1 °F 3.6 °F 10.0 °F 74% 30.63 in 10.0 mi North 12.7 mph 19.6 mph N/A   Overcast
2:53 AM 17.1 °F 7.6 °F 10.0 °F 74% 30.64 in 10.0 mi NNW 6.9 mph - N/A   Overcast
3:53 AM 17.1 °F 8.7 °F 10.0 °F 74% 30.64 in 10.0 mi North 5.8 mph - N/A   Overcast
4:49 AM 17.6 °F 12.3 °F 10.4 °F 73% 30.63 in 9.0 mi NW 3.5 mph - N/A   Overcast
4:53 AM 17.1 °F 8.7 °F 10.0 °F 74% 30.64 in 9.0 mi NW 5.8 mph - N/A   Overcast
5:53 AM 16.0 °F 10.4 °F 10.0 °F 77% 30.63 in 8.0 mi North 3.5 mph - N/A   Overcast
6:53 AM 16.0 °F 10.4 °F 10.0 °F 77% 30.66 in 7.0 mi NW 3.5 mph - N/A   Overcast
7:53 AM 16.0 °F - 10.0 °F 77% 30.68 in 7.0 mi Calm Calm - N/A   Overcast
8:53 AM 17.1 °F - 10.9 °F 77% 30.69 in 6.0 mi Calm Calm - N/A   Haze
9:41 AM 17.6 °F - 10.4 °F 73% 30.66 in 8.0 mi Calm Calm - N/A   Partly Cloudy
9:53 AM 21.0 °F - 12.9 °F 71% 30.67 in 8.0 mi Calm Calm - N/A   Scattered Clouds
10:53 AM 21.9 °F - 14.0 °F 72% 30.66 in 8.0 mi Calm Calm - N/A   Partly Cloudy
11:53 AM 24.1 °F 19.7 °F 15.1 °F 69% 30.60 in 10.0 mi Variable 3.5 mph - N/A   Clear
12:53 PM 27.0 °F 20.5 °F 15.1 °F 61% 30.57 in 10.0 mi SW 5.8 mph - N/A   Clear
1:53 PM 30.0 °F 24.1 °F 15.1 °F 54% 30.54 in 10.0 mi Variable 5.8 mph - N/A   Clear
2:53 PM 30.9 °F - 15.1 °F 52% 30.53 in 10.0 mi Calm Calm - N/A   Clear
3:53 PM 30.0 °F 24.1 °F 12.9 °F 49% 30.51 in 10.0 mi SW 5.8 mph - N/A   Clear
4:53 PM 27.0 °F 20.5 °F 12.9 °F 56% 30.51 in 10.0 mi WSW 5.8 mph - N/A   Clear
5:53 PM 26.1 °F - 12.9 °F 58% 30.50 in 10.0 mi Calm Calm - N/A   Clear
6:53 PM 25.0 °F 20.7 °F 14.0 °F 63% 30.48 in 10.0 mi South 3.5 mph - N/A   Clear
7:53 PM 26.6 °F - 14.0 °F 59% 30.47 in 10.0 mi Calm Calm - N/A   Clear
8:53 PM 25.0 °F 19.3 °F 15.1 °F 66% 30.48 in 10.0 mi SW 4.6 mph - N/A   Clear
9:53 PM 24.1 °F 19.7 °F 14.0 °F 65% 30.46 in 10.0 mi SSW 3.5 mph - N/A   Clear
10:53 PM 24.1 °F 19.7 °F 15.1 °F 69% 30.44 in 10.0 mi South 3.5 mph - N/A   Mostly Cloudy
11:53 PM 23.0 °F 15.8 °F 15.1 °F 72% 30.43 in 10.0 mi SW 5.8 mph - N/A   Clear